Weather History for Sheridan, WY

Change the Weather History Date:

Thursday, March 6, 2014

  Actual Average Record
Temperature  
Mean Temperature 42 °F 32 °F  
Max Temperature 49 °F 45 °F 71 °F (1987)
Min Temperature 35 °F 19 °F -17 °F (1920)
Degree Days  
Heating Degree Days 23 33  
Month to date heating degree days 263 203  
Since 1 July heating degree days 6013 5738  
Cooling Degree Days 0 0  
Month to date cooling degree days 0 0  
Year to date cooling degree days 0 0  
Moisture  
Dew Point 31 °F    
Average Humidity 67    
Maximum Humidity 92    
Minimum Humidity 42    
Precipitation  
Precipitation 0.04 in 0.03 in 0.60 in (1924)
Month to date precipitation 0.17 0.14  
Year to date precipitation 2.02 1.24  
Sea Level Pressure  
Sea Level Pressure 29.75 in    
Wind  
Wind Speed 6 mph (WNW)    
Max Wind Speed 24 mph    
Max Gust Speed 33 mph    
Visibility 10 miles    
Events Rain    
T = Trace of Precipitation, MM = Missing Value Source: NWS Daily Summary

Daily Weather History Graph

Daily Weather History Graph

Search for Another Location

Airport:

Trip Planner

Search our weather history database for the weather conditions in past years. The results will help you decide how hot, cold, wet, or windy it might be!

Date:

Astronomy

Mar. 06, 2014 Rise Set
Actual Time 6:36 AM MST 6:02 PM MST
Civil Twilight 6:07 AM MST 6:31 PM MST
Nautical Twilight 5:33 AM MST 7:05 PM MST
Astronomical Twilight 4:59 AM MST 7:39 PM MST
Moon 9:32 AM MST (3/6) No Moon Set
Length of Visible Light 12h 24m
Length of Day
11h 25m
Waxing Crescent, 33% of the Moon is Illuminated
Mar 6
Waxing Crescent
Mar 8
First Quarter
Mar 16
Full
Mar 23
Last Quarter
Mar 30
New

Hourly Weather History & Observations

Time (MST) Temp. Windchill Dew Point Humidity Pressure Visibility Wind Dir Wind Speed Gust Speed Precip Events Conditions
12:53 AM 42.1 °F 39.2 °F 25.0 °F 51% 29.76 in 10.0 mi WSW 4.6 mph - N/A   Clear
1:53 AM 45.0 °F - 25.0 °F 46% 29.73 in 10.0 mi Calm Calm - N/A   Clear
2:53 AM 41.0 °F - 24.1 °F 51% 29.73 in 10.0 mi Calm Calm - N/A   Clear
3:53 AM 48.0 °F - 26.1 °F 42% 29.69 in 10.0 mi SW 9.2 mph - N/A   Clear
4:53 AM 39.0 °F - 27.0 °F 62% 29.72 in 10.0 mi Calm Calm - N/A   Mostly Cloudy
5:53 AM 44.1 °F - 27.0 °F 51% 29.69 in 10.0 mi Calm Calm - N/A   Mostly Cloudy
6:53 AM 48.9 °F - 27.0 °F 43% 29.65 in 10.0 mi Calm Calm - N/A   Clear
7:53 AM 43.0 °F - 28.0 °F 56% 29.68 in 10.0 mi Calm Calm - N/A   Clear
8:53 AM 44.1 °F 42.5 °F 28.9 °F 55% 29.67 in 10.0 mi Variable 3.5 mph - N/A   Clear
9:53 AM 46.0 °F 41.9 °F 28.9 °F 51% 29.67 in 10.0 mi South 8.1 mph - N/A   Clear
10:53 AM 41.0 °F 36.4 °F 30.0 °F 65% 29.66 in 10.0 mi NNE 6.9 mph - N/A   Clear
11:53 AM 43.0 °F 40.3 °F 30.9 °F 62% 29.65 in 10.0 mi NNE 4.6 mph - N/A   Clear
12:53 PM 42.1 °F 33.6 °F 30.0 °F 62% 29.68 in 10.0 mi North 18.4 mph 33.4 mph N/A   Mostly Cloudy
1:53 PM 44.1 °F 35.7 °F 33.1 °F 65% 29.69 in 10.0 mi WNW 20.7 mph - N/A   Clear
2:53 PM 45.0 °F 37.4 °F 34.0 °F 65% 29.73 in 10.0 mi WNW 18.4 mph - N/A   Mostly Cloudy
3:53 PM 42.1 °F 35.2 °F 34.0 °F 73% 29.73 in 10.0 mi WNW 12.7 mph - N/A   Mostly Cloudy
4:53 PM 41.0 °F 35.8 °F 34.0 °F 76% 29.78 in 10.0 mi WNW 8.1 mph - N/A   Overcast
5:37 PM 39.9 °F 32.9 °F 34.0 °F 79% 29.75 in 10.0 mi NW 11.5 mph - N/A   Overcast
5:53 PM 39.0 °F 32.8 °F 34.0 °F 82% 29.80 in 10.0 mi NNW 9.2 mph - N/A   Overcast
6:53 PM 37.0 °F - 33.1 °F 86% 29.82 in 10.0 mi Calm Calm - N/A   Overcast
7:46 PM 36.0 °F - 34.0 °F 93% 29.82 in 8.0 mi Calm Calm - 0.01 in Rain Light Rain
7:53 PM 37.0 °F - 34.0 °F 89% 29.86 in 7.0 mi Calm Calm - 0.02 in Rain Light Rain
8:05 PM 37.0 °F 34.5 °F 35.1 °F 93% 29.81 in 9.0 mi SE 3.5 mph - 0.01 in Rain Light Rain
8:53 PM 36.0 °F 29.6 °F 34.0 °F 93% 29.85 in 10.0 mi SSW 8.1 mph - 0.02 in   Overcast
9:53 PM 36.0 °F 31.1 °F 34.0 °F 93% 29.85 in 10.0 mi SE 5.8 mph - 0.00 in   Overcast
10:53 PM 36.0 °F - 34.0 °F 93% 29.88 in 10.0 mi Calm Calm - N/A   Overcast
11:53 PM 35.1 °F 30.1 °F 33.1 °F 92% 29.91 in 10.0 mi West 5.8 mph - N/A   Overcast